TimeMDT,TemperatureF,Dew PointF,Humidity,Sea Level PressureIn,VisibilityMPH,Wind Direction,Wind SpeedMPH,Gust SpeedMPH,PrecipitationIn,Events,Conditions,WindDirDegrees,DateUTC
12:53 AM,39.9,34.0,79,30.06,10.0,East,6.9,-,0.00,Rain,Light Rain,100,2012-10-22 06:53:00
1:53 AM,39.0,36.0,89,30.05,7.0,ENE,8.1,-,0.04,Rain,Light Rain,70,2012-10-22 07:53:00
2:53 AM,37.9,35.1,89,30.04,10.0,East,13.8,-,0.05,Rain,Light Rain,80,2012-10-22 08:53:00
3:53 AM,37.9,34.0,86,30.03,10.0,East,13.8,-,0.01,Rain,Light Rain,80,2012-10-22 09:53:00
4:53 AM,37.0,34.0,89,30.05,10.0,ENE,10.4,-,0.01,,Overcast,70,2012-10-22 10:53:00
5:53 AM,37.0,33.1,86,30.04,10.0,East,11.5,-,N/A,,Overcast,80,2012-10-22 11:53:00
6:53 AM,37.9,34.0,86,30.04,10.0,East,13.8,-,N/A,,Overcast,80,2012-10-22 12:53:00
8:53 AM,39.0,33.1,79,30.05,10.0,East,15.0,-,N/A,,Overcast,100,2012-10-22 14:53:00
9:53 AM,39.9,33.1,77,30.04,10.0,ESE,12.7,-,N/A,,Overcast,110,2012-10-22 15:53:00
10:53 AM,42.1,33.1,70,30.03,10.0,SE,17.3,23.0,N/A,,Mostly Cloudy,130,2012-10-22 16:53:00
11:53 AM,42.1,32.0,67,30.02,10.0,ESE,13.8,-,N/A,,Overcast,120,2012-10-22 17:53:00
12:34 PM,42.8,32.0,66,29.96,10.0,ESE,10.4,-,N/A,,Overcast,120,2012-10-22 18:34:00
12:53 PM,43.0,32.0,65,29.99,10.0,ESE,13.8,-,N/A,,Overcast,110,2012-10-22 18:53:00
1:26 PM,42.8,32.0,66,29.92,10.0,ESE,10.4,-,N/A,,Overcast,110,2012-10-22 19:26:00
1:53 PM,42.1,34.0,73,29.95,10.0,ESE,10.4,-,0.00,Rain,Light Rain,120,2012-10-22 19:53:00
2:53 PM,42.1,35.1,76,29.92,10.0,East,12.7,-,0.01,Rain,Light Rain,100,2012-10-22 20:53:00
3:53 PM,39.9,37.0,89,29.90,5.0,ESE,10.4,-,0.03,Rain,Light Rain,110,2012-10-22 21:53:00
4:08 PM,39.2,37.4,93,29.85,8.0,East,9.2,-,0.00,Rain,Light Rain,100,2012-10-22 22:08:00
4:49 PM,39.2,35.6,87,29.84,10.0,East,11.5,-,0.00,,Overcast,100,2012-10-22 22:49:00
4:53 PM,39.9,37.0,89,29.89,10.0,East,9.2,-,0.00,,Overcast,100,2012-10-22 22:53:00
5:26 PM,39.2,37.4,93,29.85,9.0,ESE,8.1,-,0.00,Rain,Light Rain,110,2012-10-22 23:26:00
5:53 PM,39.0,37.0,93,29.87,10.0,East,12.7,-,0.01,Rain,Light Rain,90,2012-10-22 23:53:00
6:53 PM,39.0,37.0,93,29.87,10.0,East,11.5,-,0.00,Rain,Light Rain,100,2012-10-23 00:53:00
7:53 PM,37.9,34.0,86,29.80,10.0,East,19.6,26.5,0.01,,Mostly Cloudy,90,2012-10-23 01:53:00
8:53 PM,37.0,33.1,86,29.80,10.0,East,15.0,-,N/A,,Partly Cloudy,90,2012-10-23 02:53:00
9:29 PM,37.4,33.8,87,29.73,10.0,ESE,12.7,-,N/A,,Mostly Cloudy,120,2012-10-23 03:29:00
9:53 PM,39.9,36.0,86,29.78,10.0,SE,12.7,-,N/A,,Overcast,130,2012-10-23 03:53:00
10:53 PM,41.0,37.0,86,29.72,10.0,East,11.5,-,N/A,,Overcast,100,2012-10-23 04:53:00
11:17 PM,41.0,37.4,87,29.68,10.0,ESE,11.5,-,N/A,,Overcast,120,2012-10-23 05:17:00